Regional Weather Roundup
Issued by NWS

Home | Current Version | Previous Version | Graphics & Text | Print | Product List | Glossary On
Versions: 1 2 3 4 5 6 7 8 9 10 11 12 13 14 15 16 17 18 19 20 21 22 23 24 25 26 27 28 29 30 31 32 33 34 35 36 37 38 39 40 41 42 43 44 45 46 47 48 49 50
000
ASUS45 KTFX 010110
RWRMT
MONTANA REGIONAL WEATHER ROUNDUP
NATIONAL WEATHER SERVICE GREAT FALLS MT
700 PM MDT MON AUG 31 2015

NOTE: "FAIR" INDICATES FEW OR NO CLOUDS BELOW 12000 FEET WITH NO
SIGNIFICANT WEATHER AND/OR OBSTRUCTIONS TO VISIBILITY.

MTZ001>007-043-010200-
WEST OF THE DIVIDE

CITY           SKY/WX    TMP DP  RH WIND       PRES   REMARKS
KALISPELL      PTCLDY    68  40  35 N7        29.90F
MISSOULA       MOSUNNY   70  41  34 NW10      29.92F
BUTTE          SUNNY     71  31  22 W9G18     29.98F
MULLAN PASS    PTSUNNY   52  40  63 VRB6      30.04F
DEER LODGE       N/A     70  37  30 NW10      30.00S
EUREKA           N/A     64  43  45 SW6       29.93F
HAMILTON         N/A     70  45  40 N7        29.90F
LIBBY            N/A     66  43  42 CALM      29.92F
$$

MTZ008-052>055-010200-
SOUTHWEST MONTANA

CITY           SKY/WX    TMP DP  RH WIND       PRES   REMARKS
BOZEMAN        SUNNY     73  42  32 NE5       29.92F
DILLON         SUNNY     71  37  28 SW8       29.95F
W YELLOWSTONE  MOSUNNY   66  32  28 SW10G22   30.11S
$$

MTZ009-010-012-014-046-048-049-054-010200-
EAST SLOPES AND CENTRAL MONTANA

CITY           SKY/WX    TMP DP  RH WIND       PRES   REMARKS
CUT BANK       CLOUDY    64  37  36 W24G31    29.86F
GREAT FALLS    SUNNY     73  35  25 SW16      29.87S
MALMSTROM AFB  SUNNY     74  36  24 W14G20    29.87S
HELENA         SUNNY     77  37  23 W15       29.89F
$$

MTZ011-013-016-021-045-047-050-051-010200-
NORTH CENTRAL MONTANA

CITY           SKY/WX    TMP DP  RH WIND       PRES   REMARKS
HAVRE          PTCLDY    74  37  26 NW15      29.79S
LEWISTOWN      CLEAR     76  36  23 NW6       29.90S
N BAR RANCH      N/A     72  36  26 N6        29.94S
CHINOOK          N/A     75  37  25 NW15      29.79R
FORT BENTON      N/A     75  36  23 SW13      29.84R
$$

MTZ017>020-022>027-061-062-010200-
NORTHEAST MONTANA

CITY           SKY/WX    TMP DP  RH WIND       PRES   REMARKS
GLASGOW        PTCLDY    70  41  34 S8        29.82F
JORDAN           N/A     76  33  21 W5        29.85F
SIDNEY         CLEAR     75  37  25 NW10      29.84R
WOLF POINT     CLEAR     73  42  32 SW7       29.84F
PLENTYWOOD       N/A     72  39  30 SW9       29.83S
$$

MTZ028>42-056>058-010200-
SOUTHCENTRAL AND SOUTHEAST MONTANA

CITY           SKY/WX    TMP DP  RH WIND       PRES   REMARKS
BAKER          CLEAR     75  45  34 W3        29.91F
BILLINGS       PTCLDY    81  31  16 N3        29.88S
LIVINGSTON     PTCLDY    80  29  15 SW22G30   29.91S
MILES CITY     PTCLDY    79  45  29 SE5       29.85S
FORSYTH          N/A     81  36  19 N3        29.84S
$$

REGIONAL REPORTS...DAKOTAS

CITY           SKY/WX    TMP DP  RH WIND       PRES   REMARKS
WILLISTON      CLEAR     75  36  24 W9        29.84S
MINOT          CLEAR     73  40  30 W6        29.83S
DICKINSON      CLEAR     73  43  33 W3        29.88F
CROSBY           N/A     70  39  32 SW9       29.82S
BISMARCK       CLEAR     78  44  29 NW5       29.87S
GRAND FORKS    CLOUDY    71  60  68 SW5       29.80F
FARGO          CLOUDY    77  66  68 S6        29.82S
BUFFALO SD       N/A     74  50  42 E6        29.86F
RAPID CITY     MOCLDY    69  59  70 CALM      29.94F
$$

REGIONAL REPORTS...WYOMING/IDAHO/WASHINGTON

CITY           SKY/WX    TMP DP  RH WIND       PRES   REMARKS
GILLETTE       CLEAR     80  38  22 NE7       29.90S
SHERIDAN       CLEAR     73  46  38 NW6       29.90S
BUFFALO WY     CLEAR     77  43  29 N12       29.97R
CODY           PTCLDY    79  28  15 W3        29.96S
YELLOWSTONE LA   N/A     61  25  25 VRB7      30.22F
IDAHO FALLS    MOSUNNY   78  27  15 SW14G22   30.00F
SALMON         MOSUNNY   77  39  25 N5        29.86F
BOISE          PTSUNNY   81  39  22 NW7       29.90F
SPOKANE        CLOUDY    69  44  40 SW13      29.90F
$$

REGIONAL REPORTS...ALBERTA

CITY           SKY/WX    TMP DP  RH WIND       PRES   REMARKS
EDMONTON       MOSUNNY   68  41  37 N8        29.57R
CALGARY        MOSUNNY   68  36  30 W13G24    29.70S
LETHBRIDGE     PTSUNNY   64  39  39 W23G32    29.78R
MEDICINE HAT   CLOUDY    68  39  34 SW14G25   29.75R
WATERTON GATE    N/A     59  37  44 W13G25      N/A
CARDSTON         N/A     64  36  34 W15G24      N/A
MILK RIVER       N/A     63  39  42 SW10        N/A
$$

REGIONAL REPORTS...SASKATCHEWAN

CITY           SKY/WX    TMP DP  RH WIND       PRES   REMARKS
SWIFT CURRENT  CLEAR     68  41  37 W15G21    29.74R HAZE
REGINA         MOCLDY    66  50  55 W5        29.73F
SASKATOON      MOCLDY    72  43  35 SW8       29.66S
CYPRESS HILLS    N/A     59  34  38 W14G22      N/A
VAL MARIE        N/A     70  36  28 W13         N/A
ROCKGLEN         N/A     66  41  39 SW9         N/A
ASSINIBOIA       N/A     73  37  27 S7          N/A
$$



USA.gov is the U.S. government's official web portal to all federal, state and local government web resources and services.